This demonstration page uses our WeatherBlox Daily Observations layout. Learn more.

Left ArrowRight Arrow

Hourly Observations for August 13, 2022

Temp ( °F °C ) Dew Point ( °F °C ) Humidity (%) Winds ( mph kmh ) Pressure ( in mb ) Visibility ( mi km ) Precip ( " mm )
12:53 am 00:53 Clear 77 25 55 12.8 47 47 S 9 15 29.96 1014 10 16 0.00 0.00
1:53 am 01:53 Clear 76 24.4 56 13.3 50 50 SSW 10 17 29.96 1015 10 16 0.00 0.00
2:53 am 02:53 Clear 75 23.9 55 12.8 50 50 SSW 9 15 29.96 1015 10 16 0.00 0.00
3:53 am 03:53 Clear 74 23.3 54 12.2 50 50 SSW 9 15 29.97 1015 10 16 0.00 0.00
4:53 am 04:53 Cloudy 72 22.2 54 12.2 53 53 SSW 6 9 29.98 1015 10 16 0.00 0.00
5:53 am 05:53 Cloudy 68 20 57 13.9 68 68 N 5 7 30.00 1016 10 16 0.00 0.00
6:53 am 06:53 Partly Cloudy 68 20 58 14.4 70 70 Calm 30.00 1016 10 16 0.00 0.00
7:53 am 07:53 Sunny 70 21.1 58 14.4 66 66 SSW 3 6 29.99 1016 10 16 0.00 0.00
8:53 am 08:53 Sunny 77 25 57 13.9 50 50 SW 9 15 29.98 1015 10 16 0.00 0.00
9:53 am 09:53 Sunny 80 26.7 59 15 49 49 W 9 15 29.99 1016 10 16 0.00 0.00
10:53 am 10:53 Sunny 82 27.8 62 16.7 51 51 WNW 7 11 30.00 1016 10 16 0.00 0.00
11:53 am 11:53 Sunny 86 30 61 16.1 43 43 NW 7 11 30.00 1016 10 16 0.00 0.00
12:53 pm 12:53 Sunny 87 30.6 63 17.2 45 45 NNE 13 20 29.99 1016 10 16 0.00 0.00
1:53 pm 13:53 Sunny 88 31.1 66 18.9 48 48 NE 10 17 29.98 1015 10 16 0.00 0.00
2:53 pm 14:53 Sunny 88 31.1 67 19.4 50 50 E 12 19 29.98 1015 10 16 0.00 0.00
3:53 pm 15:53 Sunny 88 31.1 69 20.6 54 54 NE 8 13 29.97 1015 10 16 0.00 0.00
4:53 pm 16:53 Sunny 88 31.1 70 21.1 55 55 ENE 10 17 29.96 1015 10 16 0.00 0.00
5:53 pm 17:53 Sunny 88 31.1 71 21.7 57 57 NE 10 17 29.97 1015 10 16 0.00 0.00
6:53 pm 18:53 Sunny 85 29.4 72 22.2 65 65 NE 13 20 29.97 1015 10 16 0.00 0.00
7:53 pm 19:53 Sunny 80 26.7 71 21.7 74 74 NE 13 20 29.97 1015 10 16 0.00 0.00
8:53 pm 20:53 Clear 77 25 69 20.6 77 77 NE 7 11 29.97 1015 10 16 0.00 0.00
9:53 pm 21:53 Clear 73 22.8 69 20.6 87 87 NE 7 11 29.98 1015 10 16 0.00 0.00
10:53 pm 22:53 Clear 72 22.2 69 20.6 91 91 NE 6 9 30.00 1016 10 16 0.00 0.00
11:53 pm 23:53 Clear 71 21.7 68 20 90 90 ENE 8 13 29.99 1016 10 16 0.00 0.00

Powered by AerisWeather